owner,sensor,date,latitude,longitude,vertical_datum,wind_speed,wind_to_direction,wind_speed_of_gust,qcFlag 
ADCP,ioos:station:wmo:42887:1,2011-12-01T00:00:00Z,28.1910,-88.4960,48.2,99.0,-9999.0,99.0,'11144222,99999999,11144222' 
ADCP,ioos:station:wmo:42887:1,2011-12-01T00:20:00Z,28.1910,-88.4960,48.2,99.0,-9999.0,99.0,'11144222,99999999,11144222' 
ADCP,ioos:station:wmo:42887:1,2011-12-01T01:00:00Z,28.1910,-88.4960,48.2,99.0,-9999.0,99.0,'11144222,99999999,11144222' 
ADCP,ioos:station:wmo:42887:1,2011-12-01T01:20:00Z,28.1910,-88.4960,48.2,99.0,-9999.0,99.0,'11144222,99999999,11144222' 
ADCP,ioos:station:wmo:42887:1,2011-12-01T01:40:00Z,28.1910,-88.4960,48.2,99.0,-9999.0,99.0,'11144222,99999999,11144222' 
ADCP,ioos:station:wmo:42887:1,2011-12-01T02:00:00Z,28.1910,-88.4960,48.2,99.0,-9999.0,99.0,'11144222,99999999,11144222' 
ADCP,ioos:station:wmo:42887:1,2011-12-01T02:20:00Z,28.1910,-88.4960,48.2,99.0,-9999.0,99.0,'11144222,99999999,11144222' 
ADCP,ioos:station:wmo:42887:1,2011-12-01T03:20:00Z,28.1910,-88.4960,48.2,99.0,-9999.0,99.0,'11144222,99999999,11144222' 
ADCP,ioos:station:wmo:42887:1,2011-12-01T03:40:00Z,28.1910,-88.4960,48.2,99.0,-9999.0,99.0,'11144222,99999999,11144222' 
ADCP,ioos:station:wmo:42887:1,2011-12-01T04:00:00Z,28.1910,-88.4960,48.2,99.0,-9999.0,99.0,'11144222,99999999,11144222' 
ADCP,ioos:station:wmo:42887:1,2011-12-01T04:20:00Z,28.1910,-88.4960,48.2,99.0,-9999.0,99.0,'11144222,99999999,11144222' 
ADCP,ioos:station:wmo:42887:1,2011-12-01T05:00:00Z,28.1910,-88.4960,48.2,99.0,-9999.0,99.0,'11144222,99999999,11144222' 
ADCP,ioos:station:wmo:42887:1,2011-12-01T05:20:00Z,28.1910,-88.4960,48.2,99.0,-9999.0,99.0,'11144222,99999999,11144222' 
ADCP,ioos:station:wmo:42887:1,2011-12-01T05:40:00Z,28.1910,-88.4960,48.2,99.0,-9999.0,99.0,'11144222,99999999,11144222' 
ADCP,ioos:station:wmo:42887:1,2011-12-01T06:00:00Z,28.1910,-88.4960,48.2,99.0,-9999.0,99.0,'11144222,99999999,11144222' 
ADCP,ioos:station:wmo:42887:1,2011-12-01T06:20:00Z,28.1910,-88.4960,48.2,99.0,-9999.0,99.0,'11144222,99999999,11144222' 
ADCP,ioos:station:wmo:42887:1,2011-12-01T07:00:00Z,28.1910,-88.4960,48.2,99.0,-9999.0,99.0,'11144222,99999999,11144222' 
ADCP,ioos:station:wmo:42887:1,2011-12-01T07:20:00Z,28.1910,-88.4960,48.2,99.0,-9999.0,99.0,'11144222,99999999,11144222' 
ADCP,ioos:station:wmo:42887:1,2011-12-01T07:40:00Z,28.1910,-88.4960,48.2,99.0,-9999.0,99.0,'11144222,99999999,11144222' 
ADCP,ioos:station:wmo:42887:1,2011-12-01T08:00:00Z,28.1910,-88.4960,48.2,99.0,-9999.0,99.0,'11144222,99999999,11144222' 
ADCP,ioos:station:wmo:42887:1,2011-12-01T08:20:00Z,28.1910,-88.4960,48.2,99.0,-9999.0,99.0,'11144222,99999999,11144222' 
ADCP,ioos:station:wmo:42887:1,2011-12-01T09:00:00Z,28.1910,-88.4960,48.2,99.0,-9999.0,99.0,'11144222,99999999,11144222' 
ADCP,ioos:station:wmo:42887:1,2011-12-01T09:20:00Z,28.1910,-88.4960,48.2,99.0,-9999.0,99.0,'11144222,99999999,11144222' 
ADCP,ioos:station:wmo:42887:1,2011-12-01T10:00:00Z,28.1910,-88.4960,48.2,99.0,-9999.0,99.0,'11144222,99999999,11144222' 
ADCP,ioos:station:wmo:42887:1,2011-12-01T10:20:00Z,28.1910,-88.4960,48.2,99.0,-9999.0,99.0,'11144222,99999999,11144222' 
ADCP,ioos:station:wmo:42887:1,2011-12-01T10:40:00Z,28.1910,-88.4960,48.2,99.0,-9999.0,99.0,'11144222,99999999,11144222' 
ADCP,ioos:station:wmo:42887:1,2011-12-01T11:00:00Z,28.1910,-88.4960,48.2,99.0,-9999.0,99.0,'11144222,99999999,11144222' 
ADCP,ioos:station:wmo:42887:1,2011-12-01T11:20:00Z,28.1910,-88.4960,48.2,99.0,-9999.0,99.0,'11144222,99999999,11144222' 
ADCP,ioos:station:wmo:42887:1,2011-12-01T12:00:00Z,28.1910,-88.4960,48.2,99.0,-9999.0,99.0,'11144222,99999999,11144222' 
ADCP,ioos:station:wmo:42887:1,2011-12-01T12:20:00Z,28.1910,-88.4960,48.2,99.0,-9999.0,99.0,'11144222,99999999,11144222' 
ADCP,ioos:station:wmo:42887:1,2011-12-01T12:40:00Z,28.1910,-88.4960,48.2,99.0,-9999.0,99.0,'11144222,99999999,11144222' 
ADCP,ioos:station:wmo:42887:1,2011-12-01T13:00:00Z,28.1910,-88.4960,48.2,99.0,-9999.0,99.0,'11144222,99999999,11144222' 
ADCP,ioos:station:wmo:42887:1,2011-12-01T13:20:00Z,28.1910,-88.4960,48.2,99.0,-9999.0,99.0,'11144222,99999999,11144222' 
ADCP,ioos:station:wmo:42887:1,2011-12-01T13:40:00Z,28.1910,-88.4960,48.2,99.0,-9999.0,99.0,'11144222,99999999,11144222' 
ADCP,ioos:station:wmo:42887:1,2011-12-01T14:20:00Z,28.1910,-88.4960,48.2,99.0,-9999.0,99.0,'11144222,99999999,11144222' 
ADCP,ioos:station:wmo:42887:1,2011-12-01T14:40:00Z,28.1910,-88.4960,48.2,99.0,-9999.0,99.0,'11144222,99999999,11144222' 
ADCP,ioos:station:wmo:42887:1,2011-12-01T15:00:00Z,28.1910,-88.4960,48.2,99.0,-9999.0,99.0,'11144222,99999999,11144222' 
ADCP,ioos:station:wmo:42887:1,2011-12-01T15:40:00Z,28.1910,-88.4960,48.2,99.0,-9999.0,99.0,'11144222,99999999,11144222' 
ADCP,ioos:station:wmo:42887:1,2011-12-01T16:00:00Z,28.1910,-88.4960,48.2,99.0,-9999.0,99.0,'11144222,99999999,11144222' 
ADCP,ioos:station:wmo:42887:1,2011-12-01T16:20:00Z,28.1910,-88.4960,48.2,99.0,-9999.0,99.0,'11144222,99999999,11144222' 
ADCP,ioos:station:wmo:42887:1,2011-12-01T17:00:00Z,28.1910,-88.4960,48.2,99.0,-9999.0,99.0,'11144222,99999999,11144222' 
ADCP,ioos:station:wmo:42887:1,2011-12-01T17:20:00Z,28.1910,-88.4960,48.2,99.0,-9999.0,99.0,'11144222,99999999,11144222' 
ADCP,ioos:station:wmo:42887:1,2011-12-01T17:40:00Z,28.1910,-88.4960,48.2,99.0,-9999.0,99.0,'11144222,99999999,11144222' 
ADCP,ioos:station:wmo:42887:1,2011-12-01T18:00:00Z,28.1910,-88.4960,48.2,99.0,-9999.0,99.0,'11144222,99999999,11144222' 
ADCP,ioos:station:wmo:42887:1,2011-12-01T18:40:00Z,28.1910,-88.4960,48.2,99.0,-9999.0,99.0,'11144222,99999999,11144222' 
ADCP,ioos:station:wmo:42887:1,2011-12-01T19:00:00Z,28.1910,-88.4960,48.2,99.0,-9999.0,99.0,'11144222,99999999,11144222' 
ADCP,ioos:station:wmo:42887:1,2011-12-11T20:00:00Z,28.1910,-88.4960,48.2,5.3,87.0,99.0,'11111222,11111222,11144222' 
ADCP,ioos:station:wmo:42887:1,2011-12-11T20:20:00Z,28.1910,-88.4960,48.2,6.3,85.0,99.0,'11111222,11111222,11144222' 
ADCP,ioos:station:wmo:42887:1,2011-12-11T20:40:00Z,28.1910,-88.4960,48.2,6.5,88.0,99.0,'11111222,11111222,11144222' 
ADCP,ioos:station:wmo:42887:1,2011-12-11T21:00:00Z,28.1910,-88.4960,48.2,6.0,80.0,99.0,'11111222,11111222,11144222' 
ADCP,ioos:station:wmo:42887:1,2011-12-11T21:20:00Z,28.1910,-88.4960,48.2,7.7,81.0,99.0,'11111222,11111222,11144222' 
ADCP,ioos:station:wmo:42887:1,2011-12-11T21:40:00Z,28.1910,-88.4960,48.2,7.3,92.0,99.0,'11111222,11111222,11144222' 
ADCP,ioos:station:wmo:42887:1,2011-12-11T22:00:00Z,28.1910,-88.4960,48.2,7.5,78.0,99.0,'11111222,11111222,11144222' 
ADCP,ioos:station:wmo:42887:1,2011-12-11T22:40:00Z,28.1910,-88.4960,48.2,7.5,99.0,99.0,'11111222,11111222,11144222' 
ADCP,ioos:station:wmo:42887:1,2011-12-11T23:00:00Z,28.1910,-88.4960,48.2,7.1,82.0,99.0,'11111222,11111222,11144222' 
ADCP,ioos:station:wmo:42887:1,2011-12-11T23:20:00Z,28.1910,-88.4960,48.2,7.9,101.0,99.0,'11111222,11111222,11144222' 
ADCP,ioos:station:wmo:42887:1,2011-12-11T23:40:00Z,28.1910,-88.4960,48.2,7.5,103.0,99.0,'11111222,11111222,11144222' 
ADCP,ioos:station:wmo:42887:1,2011-12-12T00:00:00Z,28.1910,-88.4960,48.2,7.6,102.0,99.0,'11111222,11111222,11144222' 
ADCP,ioos:station:wmo:42887:1,2011-12-12T00:20:00Z,28.1910,-88.4960,48.2,6.9,89.0,99.0,'11111222,11111222,11144222' 
ADCP,ioos:station:wmo:42887:1,2011-12-12T01:00:00Z,28.1910,-88.4960,48.2,6.1,86.0,99.0,'11111222,11111222,11144222' 
ADCP,ioos:station:wmo:42887:1,2011-12-12T01:20:00Z,28.1910,-88.4960,48.2,7.4,98.0,99.0,'11111222,11111222,11144222' 
ADCP,ioos:station:wmo:42887:1,2011-12-12T01:40:00Z,28.1910,-88.4960,48.2,7.8,106.0,99.0,'11111222,11111222,11144222' 
ADCP,ioos:station:wmo:42887:1,2011-12-12T02:20:00Z,28.1910,-88.4960,48.2,7.1,88.0,99.0,'11111222,11111222,11144222' 
ADCP,ioos:station:wmo:42887:1,2011-12-12T02:40:00Z,28.1910,-88.4960,48.2,7.3,105.0,99.0,'11111222,11111222,11144222' 
ADCP,ioos:station:wmo:42887:1,2011-12-12T03:20:00Z,28.1910,-88.4960,48.2,8.3,86.0,99.0,'11111222,11111222,11144222' 
ADCP,ioos:station:wmo:42887:1,2011-12-12T03:40:00Z,28.1910,-88.4960,48.2,8.2,96.0,99.0,'11111222,11111222,11144222' 
ADCP,ioos:station:wmo:42887:1,2011-12-12T04:00:00Z,28.1910,-88.4960,48.2,7.6,82.0,99.0,'11111222,11111222,11144222' 
ADCP,ioos:station:wmo:42887:1,2011-12-12T04:20:00Z,28.1910,-88.4960,48.2,7.5,94.0,99.0,'11111222,11111222,11144222' 
ADCP,ioos:station:wmo:42887:1,2011-12-12T04:40:00Z,28.1910,-88.4960,48.2,8.6,92.0,99.0,'11111222,11111222,11144222' 
ADCP,ioos:station:wmo:42887:1,2011-12-12T05:00:00Z,28.1910,-88.4960,48.2,7.6,101.0,99.0,'11111222,11111222,11144222' 
ADCP,ioos:station:wmo:42887:1,2011-12-12T05:20:00Z,28.1910,-88.4960,48.2,8.0,101.0,99.0,'11111222,11111222,11144222' 
ADCP,ioos:station:wmo:42887:1,2011-12-12T05:40:00Z,28.1910,-88.4960,48.2,7.5,101.0,99.0,'11111222,11111222,11144222' 
ADCP,ioos:station:wmo:42887:1,2011-12-12T06:00:00Z,28.1910,-88.4960,48.2,7.3,92.0,99.0,'11111222,11111222,11144222' 
ADCP,ioos:station:wmo:42887:1,2011-12-12T06:20:00Z,28.1910,-88.4960,48.2,6.8,85.0,99.0,'11111222,11111222,11144222' 
ADCP,ioos:station:wmo:42887:1,2011-12-12T07:00:00Z,28.1910,-88.4960,48.2,7.2,79.0,99.0,'11111222,11111222,11144222' 
ADCP,ioos:station:wmo:42887:1,2011-12-12T07:20:00Z,28.1910,-88.4960,48.2,7.7,94.0,99.0,'11111222,11111222,11144222' 
ADCP,ioos:station:wmo:42887:1,2011-12-12T07:40:00Z,28.1910,-88.4960,48.2,7.6,87.0,99.0,'11111222,11111222,11144222' 
ADCP,ioos:station:wmo:42887:1,2011-12-12T08:00:00Z,28.1910,-88.4960,48.2,7.8,92.0,99.0,'11111222,11111222,11144222' 
ADCP,ioos:station:wmo:42887:1,2011-12-12T08:20:00Z,28.1910,-88.4960,48.2,8.1,90.0,99.0,'11111222,11111222,11144222' 
ADCP,ioos:station:wmo:42887:1,2011-12-12T08:40:00Z,28.1910,-88.4960,48.2,7.3,90.0,99.0,'11111222,11111222,11144222' 
ADCP,ioos:station:wmo:42887:1,2011-12-12T09:00:00Z,28.1910,-88.4960,48.2,8.7,81.0,99.0,'11111222,11111222,11144222' 
ADCP,ioos:station:wmo:42887:1,2011-12-12T09:20:00Z,28.1910,-88.4960,48.2,7.5,77.0,99.0,'11111222,11111222,11144222' 
ADCP,ioos:station:wmo:42887:1,2011-12-12T09:40:00Z,28.1910,-88.4960,48.2,7.1,85.0,99.0,'11111222,11111222,11144222' 
ADCP,ioos:station:wmo:42887:1,2011-12-12T10:00:00Z,28.1910,-88.4960,48.2,7.4,82.0,99.0,'11111222,11111222,11144222' 
ADCP,ioos:station:wmo:42887:1,2011-12-12T10:20:00Z,28.1910,-88.4960,48.2,7.7,78.0,99.0,'11111222,11111222,11144222' 
ADCP,ioos:station:wmo:42887:1,2011-12-12T11:00:00Z,28.1910,-88.4960,48.2,7.4,87.0,99.0,'11111222,11111222,11144222' 
ADCP,ioos:station:wmo:42887:1,2011-12-12T11:20:00Z,28.1910,-88.4960,48.2,7.9,82.0,99.0,'11111222,11111222,11144222' 
ADCP,ioos:station:wmo:42887:1,2011-12-12T11:40:00Z,28.1910,-88.4960,48.2,8.5,83.0,99.0,'11111222,11111222,11144222' 
ADCP,ioos:station:wmo:42887:1,2011-12-12T12:00:00Z,28.1910,-88.4960,48.2,8.5,83.0,99.0,'11111222,11111222,11144222' 
ADCP,ioos:station:wmo:42887:1,2011-12-12T12:20:00Z,28.1910,-88.4960,48.2,8.5,83.0,99.0,'11111222,11111222,11144222' 
ADCP,ioos:station:wmo:42887:1,2011-12-12T12:40:00Z,28.1910,-88.4960,48.2,8.5,83.0,99.0,'11111222,11111222,11144222' 
ADCP,ioos:station:wmo:42887:1,2011-12-12T13:00:00Z,28.1910,-88.4960,48.2,8.5,83.0,99.0,'11111222,11111222,11144222' 
ADCP,ioos:station:wmo:42887:1,2011-12-12T13:20:00Z,28.1910,-88.4960,48.2,8.5,83.0,99.0,'11111222,11111222,11144222' 
ADCP,ioos:station:wmo:42887:1,2011-12-12T14:00:00Z,28.1910,-88.4960,48.2,8.5,83.0,99.0,'11111222,11111222,11144222' 
ADCP,ioos:station:wmo:42887:1,2011-12-12T14:20:00Z,28.1910,-88.4960,48.2,8.5,83.0,99.0,'11111222,11111222,11144222' 
ADCP,ioos:station:wmo:42887:1,2011-12-12T14:40:00Z,28.1910,-88.4960,48.2,8.5,83.0,99.0,'11111222,11111222,11144222' 
ADCP,ioos:station:wmo:42887:1,2011-12-12T15:00:00Z,28.1910,-88.4960,48.2,8.5,83.0,99.0,'11111222,11111222,11144222' 
ADCP,ioos:station:wmo:42887:1,2011-12-12T15:20:00Z,28.1910,-88.4960,48.2,8.5,83.0,99.0,'11111222,11111222,11144222' 
ADCP,ioos:station:wmo:42887:1,2011-12-12T16:00:00Z,28.1910,-88.4960,48.2,8.5,83.0,99.0,'11111222,11111222,11144222' 
ADCP,ioos:station:wmo:42887:1,2011-12-12T16:20:00Z,28.1910,-88.4960,48.2,8.5,83.0,99.0,'11111222,11111222,11144222' 
ADCP,ioos:station:wmo:42887:1,2011-12-12T16:40:00Z,28.1910,-88.4960,48.2,8.5,83.0,99.0,'11111222,11111222,11144222' 
ADCP,ioos:station:wmo:42887:1,2011-12-12T17:00:00Z,28.1910,-88.4960,48.2,8.5,83.0,99.0,'11111222,11111222,11144222' 
ADCP,ioos:station:wmo:42887:1,2011-12-12T17:20:00Z,28.1910,-88.4960,48.2,8.5,83.0,99.0,'11111222,11111222,11144222' 
ADCP,ioos:station:wmo:42887:1,2011-12-12T17:40:00Z,28.1910,-88.4960,48.2,8.5,83.0,99.0,'11111222,11111222,11144222' 
ADCP,ioos:station:wmo:42887:1,2011-12-12T18:00:00Z,28.1910,-88.4960,48.2,8.5,83.0,99.0,'11111222,11111222,11144222' 
ADCP,ioos:station:wmo:42887:1,2011-12-12T18:20:00Z,28.1910,-88.4960,48.2,8.5,83.0,99.0,'11111222,11111222,11144222' 
ADCP,ioos:station:wmo:42887:1,2011-12-12T18:40:00Z,28.1910,-88.4960,48.2,8.5,83.0,99.0,'11111222,11111222,11144222' 
ADCP,ioos:station:wmo:42887:1,2011-12-12T19:00:00Z,28.1910,-88.4960,48.2,8.5,83.0,99.0,'11111222,11111222,11144222' 
ADCP,ioos:station:wmo:42887:1,2011-12-12T19:20:00Z,28.1910,-88.4960,48.2,8.5,83.0,99.0,'11111222,11111222,11144222' 
ADCP,ioos:station:wmo:42887:1,2011-12-12T19:40:00Z,28.1910,-88.4960,48.2,8.5,83.0,99.0,'11111222,11111222,11144222' 
ADCP,ioos:station:wmo:42887:1,2011-12-12T20:00:00Z,28.1910,-88.4960,48.2,8.5,83.0,99.0,'11111222,11111222,11144222' 
ADCP,ioos:station:wmo:42887:1,2011-12-12T20:20:00Z,28.1910,-88.4960,48.2,8.5,83.0,99.0,'11111222,11111222,11144222' 
ADCP,ioos:station:wmo:42887:1,2011-12-12T20:40:00Z,28.1910,-88.4960,48.2,8.5,83.0,99.0,'11111222,11111222,11144222' 
ADCP,ioos:station:wmo:42887:1,2011-12-12T21:00:00Z,28.1910,-88.4960,48.2,8.5,83.0,99.0,'11111222,11111222,11144222' 
ADCP,ioos:station:wmo:42887:1,2011-12-12T21:20:00Z,28.1910,-88.4960,48.2,8.5,83.0,99.0,'11111222,11111222,11144222' 
ADCP,ioos:station:wmo:42887:1,2011-12-12T21:40:00Z,28.1910,-88.4960,48.2,8.5,83.0,99.0,'11111222,11111222,11144222' 
ADCP,ioos:station:wmo:42887:1,2011-12-12T22:00:00Z,28.1910,-88.4960,48.2,8.5,83.0,99.0,'11111222,11111222,11144222' 
ADCP,ioos:station:wmo:42887:1,2011-12-12T23:00:00Z,28.1910,-88.4960,48.2,8.5,83.0,99.0,'11111222,11111222,11144222' 
ADCP,ioos:station:wmo:42887:1,2011-12-12T23:20:00Z,28.1910,-88.4960,48.2,8.5,83.0,99.0,'11111222,11111222,11144222' 
ADCP,ioos:station:wmo:42887:1,2011-12-13T00:00:00Z,28.1910,-88.4960,48.2,8.5,83.0,99.0,'11111222,11111222,11144222' 
ADCP,ioos:station:wmo:42887:1,2011-12-13T00:20:00Z,28.1910,-88.4960,48.2,8.5,83.0,99.0,'11111222,11111222,11144222' 
ADCP,ioos:station:wmo:42887:1,2011-12-13T00:40:00Z,28.1910,-88.4960,48.2,8.5,83.0,99.0,'11111222,11111222,11144222' 
ADCP,ioos:station:wmo:42887:1,2011-12-13T01:00:00Z,28.1910,-88.4960,48.2,8.5,83.0,99.0,'11111222,11111222,11144222' 
ADCP,ioos:station:wmo:42887:1,2011-12-13T01:40:00Z,28.1910,-88.4960,48.2,9.1,103.0,99.0,'11111222,11111222,11144222' 
ADCP,ioos:station:wmo:42887:1,2011-12-13T02:00:00Z,28.1910,-88.4960,48.2,9.2,99.0,99.0,'11111222,11111222,11144222' 
ADCP,ioos:station:wmo:42887:1,2011-12-13T02:20:00Z,28.1910,-88.4960,48.2,7.9,108.0,99.0,'11111222,11111222,11144222' 
ADCP,ioos:station:wmo:42887:1,2011-12-13T03:20:00Z,28.1910,-88.4960,48.2,7.6,79.0,99.0,'11111222,11111222,11144222' 
ADCP,ioos:station:wmo:42887:1,2011-12-13T03:40:00Z,28.1910,-88.4960,48.2,7.1,83.0,99.0,'11111222,11111222,11144222' 
ADCP,ioos:station:wmo:42887:1,2011-12-13T04:00:00Z,28.1910,-88.4960,48.2,9.8,98.0,99.0,'11111222,11111222,11144222' 
ADCP,ioos:station:wmo:42887:1,2011-12-13T04:20:00Z,28.1910,-88.4960,48.2,9.9,104.0,99.0,'11111222,11111222,11144222' 
ADCP,ioos:station:wmo:42887:1,2011-12-13T05:20:00Z,28.1910,-88.4960,48.2,10.9,92.0,99.0,'11111222,11111222,11144222' 
ADCP,ioos:station:wmo:42887:1,2011-12-13T05:40:00Z,28.1910,-88.4960,48.2,9.7,96.0,99.0,'11111222,11111222,11144222' 
ADCP,ioos:station:wmo:42887:1,2011-12-13T06:00:00Z,28.1910,-88.4960,48.2,8.8,101.0,99.0,'11111222,11111222,11144222' 
ADCP,ioos:station:wmo:42887:1,2011-12-13T06:40:00Z,28.1910,-88.4960,48.2,9.3,107.0,99.0,'11111222,11111222,11144222' 
ADCP,ioos:station:wmo:42887:1,2011-12-13T07:00:00Z,28.1910,-88.4960,48.2,9.0,109.0,99.0,'11111222,11111222,11144222' 
ADCP,ioos:station:wmo:42887:1,2011-12-13T07:20:00Z,28.1910,-88.4960,48.2,9.8,102.0,99.0,'11111222,11111222,11144222' 
ADCP,ioos:station:wmo:42887:1,2011-12-13T07:40:00Z,28.1910,-88.4960,48.2,8.2,98.0,99.0,'11111222,11111222,11144222' 
ADCP,ioos:station:wmo:42887:1,2011-12-13T08:00:00Z,28.1910,-88.4960,48.2,7.5,96.0,99.0,'11111222,11111222,11144222' 
ADCP,ioos:station:wmo:42887:1,2011-12-13T08:20:00Z,28.1910,-88.4960,48.2,8.9,109.0,99.0,'11111222,11111222,11144222' 
ADCP,ioos:station:wmo:42887:1,2011-12-13T10:00:00Z,28.1910,-88.4960,48.2,7.6,85.0,99.0,'11111222,11111222,11144222' 
ADCP,ioos:station:wmo:42887:1,2011-12-13T10:20:00Z,28.1910,-88.4960,48.2,8.3,101.0,99.0,'11111222,11111222,11144222' 
ADCP,ioos:station:wmo:42887:1,2011-12-13T10:40:00Z,28.1910,-88.4960,48.2,8.0,107.0,99.0,'11111222,11111222,11144222' 
ADCP,ioos:station:wmo:42887:1,2011-12-13T11:00:00Z,28.1910,-88.4960,48.2,7.7,100.0,99.0,'11111222,11111222,11144222' 
ADCP,ioos:station:wmo:42887:1,2011-12-13T11:20:00Z,28.1910,-88.4960,48.2,7.6,110.0,99.0,'11111222,11111222,11144222' 
ADCP,ioos:station:wmo:42887:1,2011-12-13T11:40:00Z,28.1910,-88.4960,48.2,8.0,100.0,99.0,'11111222,11111222,11144222' 
ADCP,ioos:station:wmo:42887:1,2011-12-13T12:00:00Z,28.1910,-88.4960,48.2,8.4,84.0,99.0,'11111222,11111222,11144222' 
ADCP,ioos:station:wmo:42887:1,2011-12-13T12:40:00Z,28.1910,-88.4960,48.2,7.6,100.0,99.0,'11111222,11111222,11144222' 
ADCP,ioos:station:wmo:42887:1,2011-12-13T13:00:00Z,28.1910,-88.4960,48.2,8.6,112.0,99.0,'11111222,11111222,11144222' 
ADCP,ioos:station:wmo:42887:1,2011-12-13T13:20:00Z,28.1910,-88.4960,48.2,7.9,109.0,99.0,'11111222,11111222,11144222' 
ADCP,ioos:station:wmo:42887:1,2011-12-13T14:00:00Z,28.1910,-88.4960,48.2,8.9,114.0,99.0,'11111222,11111222,11144222' 
ADCP,ioos:station:wmo:42887:1,2011-12-13T14:20:00Z,28.1910,-88.4960,48.2,9.3,110.0,99.0,'11111222,11111222,11144222' 
ADCP,ioos:station:wmo:42887:1,2011-12-13T14:40:00Z,28.1910,-88.4960,48.2,8.7,121.0,99.0,'11111222,11111222,11144222' 
ADCP,ioos:station:wmo:42887:1,2011-12-13T15:00:00Z,28.1910,-88.4960,48.2,9.2,112.0,99.0,'11111222,11111222,11144222' 
ADCP,ioos:station:wmo:42887:1,2011-12-13T15:20:00Z,28.1910,-88.4960,48.2,9.4,117.0,99.0,'11111222,11111222,11144222' 
ADCP,ioos:station:wmo:42887:1,2011-12-13T15:40:00Z,28.1910,-88.4960,48.2,8.6,111.0,99.0,'11111222,11111222,11144222' 
ADCP,ioos:station:wmo:42887:1,2011-12-13T16:00:00Z,28.1910,-88.4960,48.2,9.1,103.0,99.0,'11111222,11111222,11144222' 
ADCP,ioos:station:wmo:42887:1,2011-12-13T16:40:00Z,28.1910,-88.4960,48.2,8.3,111.0,99.0,'11111222,11111222,11144222' 
ADCP,ioos:station:wmo:42887:1,2011-12-13T17:00:00Z,28.1910,-88.4960,48.2,9.4,120.0,99.0,'11111222,11111222,11144222' 
ADCP,ioos:station:wmo:42887:1,2011-12-13T17:20:00Z,28.1910,-88.4960,48.2,8.6,108.0,99.0,'11111222,11111222,11144222' 
ADCP,ioos:station:wmo:42887:1,2011-12-13T17:40:00Z,28.1910,-88.4960,48.2,8.0,105.0,99.0,'11111222,11111222,11144222' 
ADCP,ioos:station:wmo:42887:1,2011-12-13T18:00:00Z,28.1910,-88.4960,48.2,8.8,107.0,99.0,'11111222,11111222,11144222' 
ADCP,ioos:station:wmo:42887:1,2011-12-13T18:20:00Z,28.1910,-88.4960,48.2,8.5,102.0,99.0,'11111222,11111222,11144222' 
ADCP,ioos:station:wmo:42887:1,2011-12-13T18:40:00Z,28.1910,-88.4960,48.2,8.8,114.0,99.0,'11111222,11111222,11144222' 
ADCP,ioos:station:wmo:42887:1,2011-12-13T19:00:00Z,28.1910,-88.4960,48.2,8.2,118.0,99.0,'11111222,11111222,11144222' 
ADCP,ioos:station:wmo:42887:1,2011-12-13T19:20:00Z,28.1910,-88.4960,48.2,8.6,99.0,99.0,'11111222,11111222,11144222' 
ADCP,ioos:station:wmo:42887:1,2011-12-13T19:40:00Z,28.1910,-88.4960,48.2,9.2,105.0,99.0,'11111222,11111222,11144222' 
ADCP,ioos:station:wmo:42887:1,2011-12-13T20:00:00Z,28.1910,-88.4960,48.2,8.3,99.0,99.0,'11111222,11111222,11144222' 
ADCP,ioos:station:wmo:42887:1,2011-12-13T20:20:00Z,28.1910,-88.4960,48.2,8.0,102.0,99.0,'11111222,11111222,11144222' 
ADCP,ioos:station:wmo:42887:1,2011-12-13T20:40:00Z,28.1910,-88.4960,48.2,9.6,103.0,99.0,'11111222,11111222,11144222' 
ADCP,ioos:station:wmo:42887:1,2011-12-13T21:00:00Z,28.1910,-88.4960,48.2,9.4,115.0,99.0,'11111222,11111222,11144222' 
ADCP,ioos:station:wmo:42887:1,2011-12-13T21:40:00Z,28.1910,-88.4960,48.2,8.7,96.0,99.0,'11111222,11111222,11144222' 
ADCP,ioos:station:wmo:42887:1,2011-12-13T22:00:00Z,28.1910,-88.4960,48.2,9.8,105.0,99.0,'11111222,11111222,11144222' 
ADCP,ioos:station:wmo:42887:1,2011-12-13T22:20:00Z,28.1910,-88.4960,48.2,10.2,104.0,99.0,'11111222,11111222,11144222' 
ADCP,ioos:station:wmo:42887:1,2011-12-13T22:40:00Z,28.1910,-88.4960,48.2,8.6,95.0,99.0,'11111222,11111222,11144222' 
ADCP,ioos:station:wmo:42887:1,2011-12-13T23:20:00Z,28.1910,-88.4960,48.2,8.3,99.0,99.0,'11111222,11111222,11144222' 
ADCP,ioos:station:wmo:42887:1,2011-12-13T23:40:00Z,28.1910,-88.4960,48.2,8.5,96.0,99.0,'11111222,11111222,11144222' 
ADCP,ioos:station:wmo:42887:1,2011-12-14T00:00:00Z,28.1910,-88.4960,48.2,9.6,96.0,99.0,'11111222,11111222,11144222' 
ADCP,ioos:station:wmo:42887:1,2011-12-14T00:20:00Z,28.1910,-88.4960,48.2,9.4,107.0,99.0,'11111222,11111222,11144222' 
ADCP,ioos:station:wmo:42887:1,2011-12-14T00:40:00Z,28.1910,-88.4960,48.2,9.2,101.0,99.0,'11111222,11111222,11144222' 
ADCP,ioos:station:wmo:42887:1,2011-12-14T01:00:00Z,28.1910,-88.4960,48.2,8.3,119.0,99.0,'11111222,11111222,11144222' 
ADCP,ioos:station:wmo:42887:1,2011-12-14T01:20:00Z,28.1910,-88.4960,48.2,8.7,100.0,99.0,'11111222,11111222,11144222' 
ADCP,ioos:station:wmo:42887:1,2011-12-14T01:40:00Z,28.1910,-88.4960,48.2,10.2,116.0,99.0,'11111222,11111222,11144222' 
ADCP,ioos:station:wmo:42887:1,2011-12-14T02:00:00Z,28.1910,-88.4960,48.2,7.9,118.0,99.0,'11111222,11111222,11144222' 
ADCP,ioos:station:wmo:42887:1,2011-12-14T02:20:00Z,28.1910,-88.4960,48.2,7.4,113.0,99.0,'11111222,11111222,11144222' 
ADCP,ioos:station:wmo:42887:1,2011-12-14T03:00:00Z,28.1910,-88.4960,48.2,8.1,120.0,99.0,'11111222,11111222,11144222' 
ADCP,ioos:station:wmo:42887:1,2011-12-14T03:20:00Z,28.1910,-88.4960,48.2,9.3,127.0,99.0,'11111222,11111222,11144222' 
ADCP,ioos:station:wmo:42887:1,2011-12-14T04:00:00Z,28.1910,-88.4960,48.2,8.4,134.0,99.0,'11111222,11111222,11144222' 
ADCP,ioos:station:wmo:42887:1,2011-12-14T04:20:00Z,28.1910,-88.4960,48.2,8.4,134.0,99.0,'11111222,11111222,11144222' 
ADCP,ioos:station:wmo:42887:1,2011-12-14T05:20:00Z,28.1910,-88.4960,48.2,8.4,134.0,99.0,'11111222,11111222,11144222' 
ADCP,ioos:station:wmo:42887:1,2011-12-14T06:00:00Z,28.1910,-88.4960,48.2,8.4,134.0,99.0,'11111222,11111222,11144222' 
ADCP,ioos:station:wmo:42887:1,2011-12-14T06:20:00Z,28.1910,-88.4960,48.2,8.4,134.0,99.0,'11111222,11111222,11144222' 
ADCP,ioos:station:wmo:42887:1,2011-12-14T07:00:00Z,28.1910,-88.4960,48.2,8.4,134.0,99.0,'11111222,11111222,11144222' 
ADCP,ioos:station:wmo:42887:1,2011-12-14T08:00:00Z,28.1910,-88.4960,48.2,8.4,134.0,99.0,'11111222,11111222,11144222' 
ADCP,ioos:station:wmo:42887:1,2011-12-14T08:20:00Z,28.1910,-88.4960,48.2,8.4,134.0,99.0,'11111222,11111222,11144222' 
ADCP,ioos:station:wmo:42887:1,2011-12-14T09:00:00Z,28.1910,-88.4960,48.2,8.4,134.0,99.0,'11111222,11111222,11144222' 
ADCP,ioos:station:wmo:42887:1,2011-12-14T09:20:00Z,28.1910,-88.4960,48.2,8.4,134.0,99.0,'11111222,11111222,11144222' 
ADCP,ioos:station:wmo:42887:1,2011-12-14T09:40:00Z,28.1910,-88.4960,48.2,8.4,134.0,99.0,'11111222,11111222,11144222' 
ADCP,ioos:station:wmo:42887:1,2011-12-14T10:20:00Z,28.1910,-88.4960,48.2,8.4,134.0,99.0,'11111222,11111222,11144222' 
ADCP,ioos:station:wmo:42887:1,2011-12-14T11:00:00Z,28.1910,-88.4960,48.2,8.4,134.0,99.0,'11111222,11111222,11144222' 
ADCP,ioos:station:wmo:42887:1,2011-12-14T11:20:00Z,28.1910,-88.4960,48.2,8.4,134.0,99.0,'11111222,11111222,11144222' 
ADCP,ioos:station:wmo:42887:1,2011-12-14T11:40:00Z,28.1910,-88.4960,48.2,8.4,134.0,99.0,'11111222,11111222,11144222' 
ADCP,ioos:station:wmo:42887:1,2011-12-14T12:00:00Z,28.1910,-88.4960,48.2,8.4,134.0,99.0,'11111222,11111222,11144222' 